Location: Unspecified
(0.0000°N, 0.0000°E)
Time: 08:08:44
(UTC+00:00)

N. Korean satellite - Pass Details

Date: 16 September 2021
Orbit: 448 x 499 km, 97.3° (Epoch: 17 September)

Event Time Altitude Azimuth Distance (km) Brightness Sun altitude
Rises 04:45:49 0° 15° (NNE) 2,511 10.4 -17.2°
Reaches altitude 10° 04:47:52 10° 18° (NNE) 1,645 9.5 -16.7°
Maximum altitude 04:51:23 67° 101° (E) 526 6.9 -15.9°
Drops below altitude 10° 04:54:58 10° 184° (S) 1,679 9.2 -15.0°
Sets 04:57:04 0° 187° (S) 2,570 10.1 -14.4°
